Location: Hamayl? Da??
(36.7028°N, 30.1716°E)
Time: 23:55:21
(UTC+00:00)

Cosmos 1892 Rocket - Pass Details

Date: 04 August 2024
Orbit: 602 x 628 km, 82.5° (Epoch: 18 September)

Event Time Altitude Azimuth Distance (km) Brightness Sun altitude
Exits shadow 18:18:36 - 187° (S) 2,901 6.7 -14.3°
Rises 18:18:38 0° 187° (S) 2,889 6.7 -14.3°
Reaches altitude 10° 18:20:51 10° 187° (S) 1,983 5.9 -14.7°
Maximum altitude 18:25:15 85° 275° (W) 626 3.6 -15.4°
Drops below altitude 10° 18:29:39 10° 6° (N) 1,981 6.5 -16.1°
Sets 18:31:52 0° 7° (N) 2,886 7.4 -16.5°
